Myrtle Beach, SC

2:39 AM EDT on May 30, 2017 (GMT -0400)
Myrtle Beach International

Weather History for KMYR - March, 2014

Change the Weather History Date:

Friday, March 14, 2014

  Actual Average Record
Temperature  
Mean Temperature 44 °F -  
Max Temperature 57 °F 62 °F 77 °F (2012)
Min Temperature 30 °F 43 °F 29 °F (1993)
Degree Days  
Heating Degree Days 22    
Moisture  
Dew Point 30 °F    
Average Humidity 66    
Maximum Humidity 86    
Minimum Humidity 36    
Precipitation  
Precipitation 0.00 in - - ()
Sea Level Pressure  
Sea Level Pressure 30.27 in    
Wind  
Wind Speed 2 mph (South)    
Max Wind Speed 17 mph    
Max Gust Speed -    
Visibility 10 miles    
Events      
Averages and records for this station are not official NWS values.
T = Trace of Precipitation, MM = Missing Value Source: NWS Daily Summary

Daily Weather History Graph

Daily Weather History Graph

Search for Another Location

Airport or City:

Trip Planner

Search our weather history database for the weather conditions in past years. The results will help you decide how hot, cold, wet, or windy it might be!

Date:

Astronomy

Mar. 14, 2014 Rise Set
Actual Time 7:27 AM EDT 7:22 PM EDT
Civil Twilight 7:02 AM EDT 7:47 PM EDT
Nautical Twilight 6:33 AM EDT 8:16 PM EDT
Astronomical Twilight 6:04 AM EDT 8:45 PM EDT
Moon 5:46 PM EDT (3/14) 6:02 AM EDT (3/14)
Length of Visible Light 12h 44m
Length of Day
11h 55m
Waxing Gibbous, 96% of the Moon is Illuminated
Mar 14
Waxing Gibbous
Mar 16
Full
Mar 23
Last Quarter
Mar 30
New
Apr 7
First Quarter

Hourly Weather History & Observations

Time (EDT) Temp. Dew Point Humidity Pressure Visibility Wind Dir Wind Speed Gust Speed Precip Events Conditions
12:15 AM 35.6 °F 28.4 °F 75% 30.25 in 10.0 mi Calm Calm - N/A   Clear
12:35 AM 37.4 °F 24.8 °F 60% 30.25 in 10.0 mi Calm Calm - N/A   Clear
12:55 AM 33.8 °F 24.8 °F 70% 30.25 in 10.0 mi Calm Calm - N/A   Clear
1:15 AM 35.6 °F 26.6 °F 70% 30.26 in 10.0 mi Calm Calm - N/A   Clear
1:35 AM 35.6 °F 24.8 °F 65% 30.26 in 10.0 mi Calm Calm - N/A   Clear
1:55 AM 33.8 °F 26.6 °F 75% 30.27 in 10.0 mi Calm Calm - N/A   Clear
2:15 AM 33.8 °F 26.6 °F 75% 30.27 in 10.0 mi Calm Calm - N/A   Clear
2:35 AM 33.8 °F 26.6 °F 75% 30.27 in 10.0 mi Calm Calm - N/A   Clear
2:55 AM 35.6 °F 30.2 °F 81% 30.26 in 10.0 mi Calm Calm - N/A   Clear
3:15 AM 33.8 °F 28.4 °F 81% 30.26 in 10.0 mi Calm Calm - N/A   Clear
3:35 AM 32.0 °F 24.8 °F 75% 30.27 in 10.0 mi Calm Calm - N/A   Clear
3:55 AM 32.0 °F 26.6 °F 80% 30.27 in 10.0 mi Calm Calm - N/A   Clear
4:15 AM 32.0 °F 26.6 °F 80% 30.27 in 10.0 mi Calm Calm - N/A   Clear
4:35 AM 30.2 °F 26.6 °F 86% 30.27 in 10.0 mi Calm Calm - N/A   Clear
4:55 AM 30.2 °F 26.6 °F 86% 30.28 in 10.0 mi Calm Calm - N/A   Clear
5:15 AM 30.2 °F 26.6 °F 86% 30.28 in 10.0 mi Calm Calm - N/A   Clear
5:35 AM 30.2 °F 26.6 °F 86% 30.29 in 10.0 mi Calm Calm - N/A   Clear
5:50 AM 30.2 °F 26.6 °F 86% 30.30 in 10.0 mi Calm Calm - N/A   Clear
6:50 AM 30.2 °F 26.6 °F 86% 30.32 in 10.0 mi Calm Calm - N/A   Clear
7:45 AM 30.2 °F 26.6 °F 86% 30.33 in 10.0 mi Calm Calm - N/A   Clear
8:45 AM 35.6 °F 30.2 °F 81% 30.35 in 10.0 mi Calm Calm - N/A   Clear
9:45 AM 50.0 °F 28.4 °F 43% 30.36 in 10.0 mi SE 11.5 mph - N/A   Clear
10:50 AM 51.8 °F 26.6 °F 38% 30.31 in 10.0 mi SSE 11.5 mph - N/A   Clear
11:50 AM 53.6 °F 28.4 °F 38% 30.37 in 10.0 mi SSE 11.5 mph - N/A   Clear
12:45 PM 53.6 °F 28.4 °F 38% 30.37 in 10.0 mi South 17.3 mph - N/A   Clear
1:45 PM 53.6 °F 28.4 °F 38% 30.35 in 10.0 mi SSE 13.8 mph - N/A   Clear
2:55 PM 55.4 °F 32.0 °F 41% 30.30 in 10.0 mi SSE 17.3 mph - N/A   Clear
3:45 PM 55.4 °F 28.4 °F 36% 30.28 in 10.0 mi South 17.3 mph - N/A   Clear
4:45 PM 57.2 °F 32.0 °F 38% 30.25 in 10.0 mi South 13.8 mph - N/A   Clear
5:45 PM 55.4 °F 32.0 °F 41% 30.23 in 10.0 mi South 11.5 mph - N/A   Clear
6:45 PM 55.4 °F 35.6 °F 47% 30.22 in 10.0 mi South 11.5 mph - N/A   Clear
7:45 PM 53.6 °F 35.6 °F 51% 30.21 in 10.0 mi South 9.2 mph - N/A   Clear
8:45 PM 51.8 °F 37.4 °F 58% 30.20 in 10.0 mi Calm Calm - N/A   Clear
10:55 PM 48.2 °F 39.2 °F 71% 30.18 in 10.0 mi Calm Calm - N/A   Clear
11:15 PM 48.2 °F 41.0 °F 76% 30.18 in 10.0 mi Calm Calm - N/A   Clear
11:35 PM 48.2 °F 42.8 °F 82% 30.18 in 10.0 mi Calm Calm - N/A   Clear
11:55 PM 46.4 °F 39.2 °F 76% 30.17 in 10.0 mi Calm Calm - N/A   Clear